Weather History for Millington, TN

Change the Weather History Date:

Monday, December 2, 2013

  Actual Average Record
Temperature  
Mean Temperature 54 °F -  
Max Temperature 60 °F 55 °F 73 °F (1998)
Min Temperature 46 °F 38 °F 19 °F (2006)
Degree Days  
Heating Degree Days 11    
Growing Degree Days 4 (Base 50)    
Moisture  
Dew Point 49 °F    
Average Humidity 84    
Maximum Humidity 100    
Minimum Humidity 72    
Precipitation  
Precipitation 0.00 in - - ()
Sea Level Pressure  
Sea Level Pressure 29.80 in    
Wind  
Wind Speed 1 mph (SE)    
Max Wind Speed 7 mph    
Max Gust Speed -    
Visibility 9 miles    
Events      
Averages and records for this station are not official NWS values.
T = Trace of Precipitation, MM = Missing Value Source: NWS Daily Summary

Daily Weather History Graph

Daily Weather History Graph

Search for Another Location

Airport:

Trip Planner

Search our weather history database for the weather conditions in past years. The results will help you decide how hot, cold, wet, or windy it might be!

Date:

Astronomy

Dec. 02, 2013 Rise Set
Actual Time 6:51 AM CST 4:46 PM CST
Civil Twilight 6:23 AM CST 5:14 PM CST
Nautical Twilight 5:51 AM CST 5:46 PM CST
Astronomical Twilight 5:20 AM CST 6:16 PM CST
Moon 6:17 AM CST (12/2) 4:48 PM CST (12/2)
Length of Visible Light 10h 51m
Length of Day
9h 55m
Waning Crescent, 0% of the Moon is Illuminated
Dec 2
Waning Crescent
Dec 2
New
Dec 9
First Quarter
Dec 17
Full
Dec 25
Last Quarter

Hourly Weather History & Observations

Time (CST) Temp. Dew Point Humidity Pressure Visibility Wind Dir Wind Speed Gust Speed Precip Events Conditions
2:15 AM 50.0 °F 42.8 °F 76% 29.89 in 10.0 mi Calm Calm - N/A   Overcast
2:35 AM 50.0 °F 42.8 °F 76% 29.89 in 10.0 mi Calm Calm - N/A   Overcast
2:55 AM 48.2 °F 42.8 °F 82% 29.88 in 10.0 mi Calm Calm - N/A   Overcast
3:15 AM 48.2 °F 42.8 °F 82% 29.87 in 10.0 mi Calm Calm - N/A   Overcast
3:35 AM 48.2 °F 44.6 °F 87% 29.87 in 10.0 mi Calm Calm - N/A   Overcast
3:55 AM 48.2 °F 44.6 °F 87% 29.87 in 10.0 mi Calm Calm - N/A   Overcast
4:15 AM 48.2 °F 44.6 °F 87% 29.86 in 10.0 mi Calm Calm - N/A   Overcast
4:35 AM 50.0 °F 44.6 °F 82% 29.86 in 10.0 mi ESE 3.5 mph - N/A   Overcast
4:55 AM 48.2 °F 44.6 °F 87% 29.85 in 10.0 mi Calm Calm - N/A   Mostly Cloudy
8:55 AM 53.6 °F 46.4 °F 77% 29.84 in 10.0 mi ESE 3.5 mph - N/A   Mostly Cloudy
9:55 AM 55.4 °F 48.2 °F 77% 29.84 in 10.0 mi Calm Calm - N/A   Overcast
10:55 AM 59.0 °F 50.0 °F 72% 29.80 in 10.0 mi ESE 3.5 mph - N/A   Overcast
11:55 AM 60.8 °F 51.8 °F 72% 29.77 in 10.0 mi SSE 4.6 mph - N/A   Overcast
12:55 PM 60.8 °F 51.8 °F 72% 29.75 in 10.0 mi SE 3.5 mph - N/A   Overcast
1:55 PM 60.8 °F 53.6 °F 77% 29.73 in 10.0 mi SSE 6.9 mph - N/A   Overcast
2:50 PM 60.8 °F 53.6 °F 77% 29.73 in 10.0 mi SSW 3.5 mph - N/A   Overcast
3:50 PM 60.8 °F 53.6 °F 77% 29.73 in 10.0 mi North - - N/A   Overcast
4:55 PM 60.8 °F 53.6 °F 77% 29.73 in 10.0 mi Calm Calm - N/A   Overcast
5:55 PM 59.0 °F 53.6 °F 82% 29.75 in 10.0 mi Calm Calm - N/A   Overcast
6:55 PM 53.6 °F 53.6 °F 100% 29.76 in 10.0 mi Calm Calm - N/A   Overcast
7:55 PM 53.6 °F 51.8 °F 94% 29.76 in 7.0 mi Calm Calm - N/A   Overcast
8:55 PM 51.8 °F 51.8 °F 100% 29.77 in 7.0 mi Calm Calm - N/A   Overcast
9:55 PM 50.0 °F 50.0 °F 100% 29.77 in 1.0 mi Calm Calm - N/A   Mostly Cloudy
10:36 PM 50.0 °F 50.0 °F 100% 29.77 in 1.0 mi Calm Calm - N/A   Partly Cloudy
10:55 PM 46.4 °F 46.4 °F 100% 29.76 in 1.0 mi Calm Calm - N/A   Mostly Cloudy